Location: Unspecified
(0.0000°N, 0.0000°E)
Time: 09:16:04
(UTC+00:00)

Explorer 11/Cluster Stage 4 - Pass Details

Date: 14 July 2020
Orbit: 467 x 1259 km, 28.8° (Epoch: 03 August)

Event Time Altitude Azimuth Distance (km) Brightness Sun altitude
Rises 18:07:08 0° 301° (WNW) 4,126 12.8 -0.3°
Reaches altitude 10° 18:09:59 10° 301° (WNW) 3,202 11.7 -0.9°
Maximum altitude 18:18:16 89° 210° (SSW) 1,249 7.7 -2.9°
Drops below altitude 10° 18:26:12 10° 121° (ESE) 3,075 9.0 -4.7°
Enters shadow 18:27:29 - 121° (ESE) 3,495 9.2 -5.0°
Sets 18:28:53 0° 121° (ESE) 3,957 - -5.3°
